ONEWEB-0448, 51641

Orbit data source: Space-Track

ONEWEB-0448, 51641 is a payload satellite owned by One Web (NAA) (UK) in LEO that was launched on Thu, 10 Feb 2022 UTC via a SOYUZ-ST-B launch vehicle from the French Guiana (FRGUI). Payload-class satellites include a variety of spacecraft equipped with specific instruments for various scientific and technological missions. These include communications satellites like Starlink; space stations such as the ISS; scientific satellites like the Hubble; Earth observation satellites from companies like Planet Labs, Umbra, and HawkEye 360; GPS; miniature CubeSats for education and research; and military/defense satellites.

Loading next visibility...
Identifier
51641, 2022-012V
Orbit
LEO
Country
Flag of UKUK
Related business
Manufacturer
One Web
Mission
Operational Commercial Communications
Bus & Motor
ARROW, Unknown motor
Mass
148 kg wet, ~140 kg dry
Launch date (UTC)
2022-02-10 (4 years ago)
Launch vehicle
SOYUZ-ST-B
Launch site
French Guiana (FRGUI)
Object type
Payload
Rocket body
Debris
Shape & HBR
Trap Box + 2 Pan, 6.7 m
Radar Cross Section
3.464 m², Large (>1 m²)

Expand to show TLE details & history
Last TLE update: 3 days ago

TLE from 3 days ago
0 ONEWEB-0448
1 51641U 22012V   26170.61934576 -.00001041  00000-0 -30228-2 0  9996
2 51641  87.8826  35.7960 0001913  84.0127 276.1218 13.10280512209612
Epoch: 2026-06-19T14:51Z
TLE epoch observation values (Epoch: 2026-06-19T14:51:51.473Z)
Latitude
-0.00006°
Longitude
-95.01419°
Altitude
1,224.807 km
Speed
7.242 km/s
True Right ascension
02h 23m 11s
True Declination
0° 00' 00"
Sunlit
Object was in daylight at epoch
Visualization orbit readout
Latitude
Unknown
Longitude
Unknown
Altitude
Unknown
Speed
Unknown
Apparent Right ascension
Unknown
Apparent Declination
Unknown
Sunlit
N/A
Visualization observer readout
Local Sidereal Time
21:25:50
Azimuth
Unknown
Elevation
Unknown
Doppler factor
Unknown
Orbital elements
Apogee altitude
1,220.647 km
Perigee altitude
1,217.741 km
Semi-major axis
7,597.331 km
Eccentricity
0.00019
Inclination
87.8826°
RAAN
35.796°
Arg. of periapsis
84.0127°
True anomaly
276.1°
Mean anomaly
276.1218°
Eccentric anomaly
276.1109°
Mean motion
3.27757 °/min
Orbital period
109.84 mins
BSTAR
-0.0030228
Loading maneuver chart data...
Computing Atmospheric mass density...
Loading historical data...
Loading historical data...
Loading historical data...
Loading historical data...
Loading historical data...
Loading historical data...
Loading historical data...

Documentation

Showing up to 5 results
|